Wind_Speed
15 16 16 16 16 16 16 16 16 15 15 15 16 16 16 17 17 17 18 17 17 16 17 17 17 18 18 17 17 17 17 17 17 17 17 17 17 18
15 16 16 16 16 16 16 17 17 17 17 16 16 16 16 16 17 18 18 17 16 16 17 17 17 17 18 17 17 17 17 17 18 18 18 17 17 18
17 17 17 17 17 17 17 17 17 17 17 17 17 17 17 18 18 18 17 18 17 17 17 17 17 17 17 17 17 17 17 18 18 18 18 18 19 19
19 18 18 17 18 18 18 19 19 19 19 19 19 19 19 18 19 19 19 19 18 17 18 17 17 17 17 17 18 18 19 19 19 19 20 20 20 20
20 20 20 20 19 19 20 20 20 20 20 21 21 21 20 20 20 20 20 20 19 18 18 18 18 18 18 18 18 19 19 19 20 21 21 21 21 21
22 22 22 22 22 21 21 21 21 21 22 22 22 22 21 21 21 20 20 19 19 19 18 19 19 19 19 19 20 20 20 21 21 21 21 22 22 22
24 24 24 24 25 24 23 23 23 22 23 23 23 22 22 22 21 21 21 21 20 20 20 21 21 20 21 21 21 22 22 22 22 22 22 22 22 22
26 25 26 26 27 27 26 26 26 25 25 25 25 24 24 23 23 23 23 23 22 22 22 22 22 22 23 23 23 23 23 23 23 23 24 23 23 24
27 27 27 27 27 27 28 28 28 27 27 27 26 26 26 26 25 25 25 25 25 24 25 24 24 24 24 24 24 24 24 23 23 24 25 25 25 25
27 28 28 28 28 28 29 29 29 29 28 28 28 28 28 28 27 27 26 26 25 25 26 25 26 26 25 25 24 24 25 25 25 25 26 26 26 27
28 28 27 27 28 28 29 30 29 29 29 29 30 30 30 29 29 28 28 27 26 26 26 26 26 27 27 26 26 26 26 27 27 27 27 28 28 28
28 28 29 29 29 28 29 30 30 30 30 30 31 31 31 30 30 30 29 29 29 28 28 28 28 28 28 28 28 28 28 29 29 29 29 29 29 29
29 29 29 29 29 29 30 30 31 31 31 31 31 31 31 31 31 31 30 30 29 29 30 30 29 30 29 29 29 29 30 30 30 31 31 31 31 30
28 29 31 31 30 30 30 30 30 31 31 31 32 32 31 31 31 32 32 31 31 30 31 31 31 31 30 30 30 30 30 30 31 31 31 31 31 31
29 30 30 31 31 30 30 29 30 30 31 31 32 32 32 32 32 32 32 32 32 32 32 32 32 32 32 31 31 31 31 31 31 31 31 32 32 32
29 30 30 30 31 30 31 31 31 31 31 31 32 32 32 33 34 34 34 34 34 33 33 33 33 33 33 33 33 32 33 33 33 32 32 33 33 33
30 30 30 30 31 31 31 31 32 32 32 32 33 33 33 33 33 34 35 35 35 34 34 34 34 34 34 34 34 34 34 34 34 34 33 33 34 34
32 31 31 31 31 32 32 32 32 32 32 32 32 33 34 34 34 35 36 36 36 36 36 36 36 36 35 35 35 35 36 35 35 35 35 35 35 36
33 33 33 33 33 33 33 33 33 33 33 33 33 34 34 35 35 36 36 37 37 37 37 37 37 37 37 37 37 37 37 37 37 37 37 37 37 38
34 34 34 34 35 35 35 34 34 34 34 35 35 35 35 35 35 35 36 36 37 38 39 39 38 38 38 38 39 38 38 39 39 39 39 38 38 39
35 35 35 35 35 35 36 36 36 36 36 36 36 36 36 36 36 36 36 37 38 38 38 38 38 38 39 39 38 38 38 39 39 39 39 39 39 39
35 35 35 35 35 35 35 36 36 36 36 37 37 37 37 38 38 38 38 38 38 38 38 38 39 40 39 38 38 38 38 38 38 39 39 39 39 38
36 36 36 36 36 36 36 36 36 36 36 36 37 38 38 38 38 38 38 38 38 38 38 38 38 38 39 39 38 38 38 38 38 38 38 38 38 38
Wind_Direction
263 263 265 267 266 266 267 266 267 270 273 273 274 274 274 274 275 277 281 283 279 276 272 270 268 268 267 265 262 260 259 260 261 261 262 262 261 260
265 264 266 268 265 265 268 267 266 268 271 272 272 272 272 274 275 277 280 280 279 277 273 270 269 268 266 264 262 261 260 261 261 262 263 264 262 263
265 265 267 269 269 267 268 268 268 269 271 270 273 273 275 275 275 275 278 279 278 275 272 270 268 267 266 265 264 263 262 262 260 260 261 263 264 265
264 265 267 270 271 270 269 269 269 269 270 271 271 272 273 275 277 276 275 277 275 272 271 270 268 267 268 266 264 263 263 263 262 263 263 263 263 263
264 265 266 267 270 271 270 270 270 269 269 270 269 270 271 274 275 276 274 274 275 274 272 270 268 268 268 266 264 264 265 264 265 266 265 265 265 266
263 264 265 267 269 270 270 271 271 269 268 269 269 270 270 271 271 273 274 274 276 276 273 272 271 269 268 266 265 265 266 267 267 267 266 265 265 266
263 263 265 267 269 270 269 270 270 269 269 270 270 270 271 271 273 274 276 276 276 273 273 272 271 269 268 268 267 266 266 266 267 268 268 266 266 266
266 265 266 267 268 268 269 269 269 269 269 270 269 269 270 271 273 274 275 275 275 273 272 270 270 269 268 268 268 267 267 267 267 267 268 269 269 268
267 267 267 268 267 266 267 268 268 268 268 268 268 268 268 268 269 270 272 274 274 273 272 270 270 270 270 270 268 268 269 269 268 268 269 268 269 269
268 268 267 267 267 266 267 268 268 267 267 267 267 267 267 267 268 269 270 271 271 272 271 270 269 269 269 269 268 268 268 269 269 269 269 269 269 269
271 269 268 267 266 267 268 269 269 268 266 266 267 267 266 267 267 267 268 269 270 271 271 270 269 268 267 267 268 268 268 268 269 269 270 269 269 268
273 270 269 269 267 268 269 270 271 270 268 266 265 265 266 266 267 267 267 268 269 270 270 270 269 268 267 268 269 269 269 269 270 271 271 271 270 270
274 272 272 271 270 269 270 270 271 271 270 268 265 264 265 266 266 267 267 267 268 269 269 269 269 269 269 269 269 269 269 270 271 271 271 271 271 271
273 274 274 273 271 270 271 270 270 270 270 269 267 267 266 266 266 265 265 266 268 269 268 269 269 269 270 270 270 269 270 270 271 271 271 270 270 271
275 275 276 274 273 271 270 270 270 270 269 269 268 268 268 266 265 265 264 266 267 268 268 269 269 269 269 270 271 270 270 270 271 271 270 270 270 270
275 276 275 273 273 273 271 271 271 270 270 269 269 268 268 267 267 266 266 266 267 268 269 269 269 269 269 269 270 270 270 270 270 270 270 271 271 270
274 273 273 273 272 273 272 272 272 271 270 270 269 268 268 268 268 268 267 267 266 267 267 269 269 270 270 270 270 270 271 271 271 271 271 270 270 269
272 273 272 273 274 274 272 272 271 271 271 271 270 268 268 268 268 268 267 266 266 266 266 267 268 269 270 271 271 271 271 271 271 271 271 270 269 268
273 273 272 272 273 274 272 270 270 270 270 271 270 270 269 268 268 267 267 266 265 265 266 266 268 269 270 270 271 271 271 270 270 271 271 271 269 268
274 274 274 274 273 272 272 271 270 270 269 270 270 270 270 269 268 268 267 267 267 266 266 267 267 268 269 269 270 270 270 270 270 271 272 271 270 269
274 274 274 274 273 272 272 272 271 270 269 269 269 269 269 269 269 268 268 268 269 268 267 267 268 268 268 269 269 269 270 270 270 271 271 271 272 271
276 275 274 274 273 272 272 271 271 271 271 269 268 268 269 270 270 270 270 270 269 268 268 268 269 269 269 269 269 269 269 269 269 270 271 271 271 271
276 275 274 273 273 272 272 271 271 271 271 270 269 269 269 270 270 271 271 270 269 269 269 269 269 269 269 270 270 270 270 269 269 270 271 271 270 271
Height
5797 5797 5798 5798 5798 5798 5798 5799 5800 5799 5800 5799 5799 5799 5798 5798 5798 5797 5797 5796 5795 5794 5794 5794 5794 5795 5795 5795 5796 5796 5797 5797 5798 5798 5799 5799 5800 5800
5792 5793 5793 5793 5793 5793 5794 5794 5794 5795 5795 5795 5795 5794 5794 5793 5793 5792 5792 5790 5789 5788 5788 5789 5789 5790 5790 5790 5791 5792 5792 5793 5793 5794 5794 5795 5795 5796
5788 5788 5788 5789 5789 5789 5789 5789 5789 5790 5790 5790 5790 5789 5789 5789 5788 5787 5787 5786 5784 5784 5784 5784 5785 5785 5785 5786 5786 5787 5788 5788 5788 5789 5789 5790 5790 5791
5782 5783 5783 5784 5784 5784 5784 5784 5784 5784 5785 5784 5784 5784 5784 5783 5783 5782 5782 5781 5780 5779 5779 5779 5780 5780 5781 5781 5782 5782 5783 5783 5784 5784 5784 5784 5785 5785
5777 5777 5778 5778 5778 5778 5778 5778 5778 5778 5779 5779 5779 5778 5778 5778 5778 5777 5777 5776 5775 5774 5774 5774 5775 5775 5776 5776 5777 5777 5778 5778 5778 5778 5778 5779 5779 5780
5770 5771 5771 5772 5772 5772 5772 5772 5772 5772 5772 5772 5772 5772 5772 5772 5772 5771 5771 5770 5770 5769 5769 5769 5770 5770 5770 5771 5771 5772 5772 5772 5772 5772 5772 5773 5773 5774
5763 5764 5764 5765 5765 5765 5765 5766 5766 5766 5766 5766 5766 5766 5766 5765 5765 5765 5765 5764 5764 5764 5764 5764 5764 5764 5764 5765 5765 5765 5765 5766 5766 5766 5766 5766 5767 5767
5756 5756 5756 5757 5757 5758 5758 5758 5758 5759 5759 5759 5759 5759 5759 5759 5759 5759 5758 5758 5758 5759 5758 5758 5758 5758 5758 5758 5758 5758 5759 5759 5759 5759 5760 5760 5760 5761
5748 5748 5748 5749 5749 5749 5750 5750 5750 5750 5751 5751 5751 5751 5752 5752 5752 5751 5751 5751 5752 5751 5751 5751 5751 5751 5751 5751 5751 5751 5751 5752 5752 5752 5752 5753 5753 5753
5740 5740 5740 5740 5741 5741 5741 5741 5741 5742 5742 5742 5743 5743 5743 5743 5744 5744 5744 5744 5744 5744 5743 5744 5744 5744 5744 5744 5744 5744 5744 5745 5745 5745 5745 5745 5746 5746
5731 5732 5732 5732 5732 5732 5733 5733 5733 5733 5733 5733 5733 5734 5734 5734 5735 5735 5736 5736 5736 5736 5736 5736 5736 5736 5736 5737 5736 5737 5737 5737 5737 5737 5737 5737 5737 5738
5723 5722 5723 5723 5723 5723 5723 5723 5723 5723 5723 5723 5724 5724 5725 5725 5726 5726 5727 5727 5727 5728 5728 5728 5728 5728 5729 5729 5728 5728 5729 5729 5729 5729 5729 5729 5729 5729
5714 5713 5714 5714 5713 5714 5714 5714 5714 5714 5713 5714 5714 5714 5715 5716 5716 5717 5718 5718 5719 5719 5719 5719 5719 5719 5720 5720 5720 5720 5720 5720 5720 5720 5719 5720 5720 5720
5705 5705 5705 5704 5704 5704 5704 5704 5704 5704 5704 5704 5704 5705 5705 5706 5707 5707 5708 5708 5709 5709 5709 5710 5710 5710 5710 5711 5711 5711 5710 5710 5710 5710 5710 5710 5710 5710
5696 5696 5695 5694 5694 5694 5694 5694 5694 5694 5694 5694 5694 5695 5696 5696 5696 5697 5697 5698 5699 5699 5699 5700 5700 5700 5700 5701 5701 5701 5701 5701 5701 5700 5700 5700 5700 5700
5686 5686 5685 5685 5685 5685 5684 5684 5684 5684 5684 5684 5684 5684 5685 5686 5686 5686 5687 5688 5688 5689 5689 5689 5689 5690 5690 5690 5690 5690 5690 5690 5690 5690 5690 5690 5690 5690
5676 5676 5676 5675 5675 5675 5674 5674 5673 5673 5673 5673 5673 5674 5674 5675 5675 5676 5676 5677 5678 5679 5679 5679 5679 5679 5679 5679 5679 5680 5680 5680 5680 5679 5680 5680 5680 5680
5666 5666 5665 5665 5665 5664 5664 5663 5663 5663 5663 5663 5663 5663 5663 5664 5664 5665 5665 5666 5666 5667 5668 5668 5668 5668 5668 5668 5669 5668 5668 5668 5668 5668 5668 5668 5669 5669
5655 5655 5655 5654 5654 5653 5653 5652 5652 5652 5652 5652 5652 5652 5652 5653 5653 5653 5653 5654 5654 5655 5656 5656 5656 5656 5656 5657 5657 5657 5657 5657 5657 5657 5657 5657 5657 5657
5644 5644 5643 5643 5642 5642 5641 5641 5641 5641 5641 5641 5641 5641 5641 5641 5641 5641 5641 5642 5642 5643 5643 5643 5644 5644 5644 5645 5644 5644 5644 5644 5644 5644 5644 5644 5644 5644
5632 5632 5631 5631 5630 5630 5629 5629 5629 5629 5629 5629 5629 5629 5629 5629 5629 5629 5629 5629 5630 5630 5630 5631 5631 5631 5631 5631 5632 5632 5632 5631 5631 5631 5631 5631 5631 5631
5620 5620 5619 5618 5618 5618 5617 5617 5616 5616 5616 5616 5616 5616 5616 5616 5616 5616 5616 5617 5617 5617 5617 5618 5618 5618 5618 5619 5619 5620 5619 5619 5619 5618 5618 5618 5618 5619
5608 5607 5606 5606 5605 5605 5604 5604 5604 5604 5603 5603 5603 5603 5604 5604 5604 5604 5604 5604 5604 5604 5604 5605 5605 5605 5605 5606 5606 5606 5606 5606 5606 5607 5607 5606 5606 5606